Regional Weather Roundup
Issued by NWS Albany, NY

Home | Current Version | Previous Version | Graphics & Text | Print | Product List | Glossary Off
Versions: 1 2 3 4 5 6 7 8 9 10 11 12 13 14 15 16 17 18 19 20 21 22 23 24 25 26 27 28 29 30 31 32 33 34 35 36 37 38 39 40 41 42 43 44 45 46 47 48 49 50

000
ASUS41 KALY 300710
RWRALY

NEW YORK STATE HOURLY WEATHER ROUNDUP
NATIONAL WEATHER SERVICE ALBANY NY
300 AM EDT SAT MAY 30 2015

NOTE: "FAIR" INDICATES FEW OR NO CLOUDS BELOW 12,000 FEET WITH NO
SIGNIFICANT WEATHER AND/OR NO OBSTRUCTIONS TO VISIBILITY.

NYZ032-033-038>043-046>054-057>066-NYZ062>081-300800-
EAST


CITY           SKY/WX    TMP DP  RH WIND       PRES   REMARKS
ALBANY         PTCLDY    68  57  68 S9        30.14F
GLENS FALLS    CLEAR     58  55  90 CALM      30.13F
POUGHKEEPSIE   PTCLDY    62  58  86 CALM      30.17F
NEWBURGH       PTCLDY    66  61  82 CALM      30.20F
MONTGOMERY     CLEAR     60  58  92 CALM      30.18F
WHITE PLAINS   PTCLDY    61  59  93 CALM      30.20F FOG
ISLIP          MOCLDY    62  60  93 S3        30.20F
NEW YORK CITY  MOCLDY    66  60  81 S7        30.19F
CENTRAL PARK   MOCLDY    67  60  78 CALM      30.22F
$$

NYZ005>009-017-018-044>046-055-056-300800-
CENTRAL


CITY           SKY/WX    TMP DP  RH WIND       PRES   REMARKS
FULTON         CLOUDY    73  61  65 S6        30.03F
SYRACUSE       MOCLDY    76  63  64 S13       30.04F
ROME           CLEAR     66  57  72 SE6       30.10F
ELMIRA         CLOUDY    71  64  78 CALM      30.09F
BINGHAMTON     PTCLDY    67  61  81 S9        30.15S
MONTICELLO     PTCLDY    61  55  82 CALM      30.22F
$$

NYZ026>034-041>043-300800-
NORTH


CITY           SKY/WX    TMP DP  RH WIND       PRES   REMARKS
WATERTOWN      CLOUDY    75  60  59 S10       30.00F
FORT DRUM      NOT AVBL
MASSENA        MOCLDY    68  56  65 S6        29.99F
SARANAC LAKE   PTCLDY    51  50  96 CALM      30.09F
PLATTSBURGH    CLEAR     55  54  96 CALM      30.05F
$$

NYZ001>004-010>016-019>021-300800-
WEST


CITY           SKY/WX    TMP DP  RH WIND       PRES   REMARKS
NIAGARA FALLS  PTCLDY    67  63  87 S9        30.00S
BUFFALO        PTCLDY    74  61  63 S15       30.02R
DUNKIRK        CLEAR     72  63  73 S18G25    30.03S
JAMESTOWN      PTCLDY    64  61  88 S9        30.11S
WELLSVILLE     PTCLDY    69  62  78 S7G17     30.14F
ROCHESTER      PTCLDY    74  63  68 SW14      30.02F
PENN YAN       CLOUDY    74  63  68 S9        30.07F
$$

             KEY
       WCI = WIND CHILL INDEX
       VSB = VISIBILITY
       HX  = HEAT INDEX
$$



USA.gov is the U.S. government's official web portal to all federal, state and local government web resources and services.